TimeEST,TemperatureF,Dew PointF,Humidity,Sea Level PressureIn,VisibilityMPH,Wind Direction,Wind SpeedMPH,Gust SpeedMPH,PrecipitationIn,Events,Conditions,WindDirDegrees,DateUTC
12:54 AM,10.0,6.1,84,30.12,10.0,Calm,Calm,-,N/A,,Overcast,0,2012-12-31 05:54:00
1:54 AM,12.0,7.0,80,30.12,10.0,Calm,Calm,-,N/A,,Overcast,0,2012-12-31 06:54:00
2:54 AM,12.9,8.1,81,30.12,10.0,Calm,Calm,-,N/A,,Overcast,0,2012-12-31 07:54:00
3:54 AM,15.1,9.0,77,30.08,10.0,Calm,Calm,-,N/A,,Overcast,0,2012-12-31 08:54:00
4:54 AM,16.0,10.0,77,30.08,10.0,Calm,Calm,-,N/A,,Overcast,0,2012-12-31 09:54:00
5:54 AM,16.0,10.9,81,30.07,10.0,Calm,Calm,-,N/A,,Overcast,0,2012-12-31 10:54:00
6:22 AM,17.6,10.4,73,30.03,10.0,Calm,Calm,-,N/A,,Overcast,0,2012-12-31 11:22:00
6:54 AM,18.0,12.0,78,30.06,10.0,Calm,Calm,-,N/A,,Overcast,0,2012-12-31 11:54:00
7:54 AM,19.0,14.0,81,30.06,10.0,Calm,Calm,-,N/A,,Overcast,0,2012-12-31 12:54:00
8:54 AM,24.1,19.9,84,30.04,3.0,SSW,4.6,-,N/A,,Overcast,210,2012-12-31 13:54:00
9:45 AM,23.0,19.4,86,30.02,2.5,Calm,Calm,-,N/A,,Overcast,0,2012-12-31 14:45:00
9:54 AM,23.0,19.9,88,30.06,2.5,Calm,Calm,-,N/A,,Overcast,0,2012-12-31 14:54:00
10:11 AM,24.8,21.2,86,30.01,3.0,Calm,Calm,-,N/A,,Overcast,0,2012-12-31 15:11:00
10:54 AM,23.0,21.0,92,30.05,4.0,Calm,Calm,-,0.01,,Overcast,0,2012-12-31 15:54:00
11:54 AM,26.1,21.9,84,30.01,8.0,Variable,3.5,-,N/A,,Overcast,0,2012-12-31 16:54:00
12:54 PM,28.9,21.0,72,29.98,10.0,Variable,3.5,-,N/A,,Overcast,0,2012-12-31 17:54:00
1:54 PM,28.9,19.9,69,29.95,10.0,West,3.5,-,N/A,,Overcast,260,2012-12-31 18:54:00
2:54 PM,30.0,21.0,69,29.92,10.0,Calm,Calm,-,N/A,,Mostly Cloudy,0,2012-12-31 19:54:00
3:05 PM,30.2,19.4,64,29.88,10.0,Calm,Calm,-,N/A,,Scattered Clouds,0,2012-12-31 20:05:00
3:54 PM,30.9,19.9,64,29.91,10.0,Calm,Calm,-,N/A,,Clear,0,2012-12-31 20:54:00
4:54 PM,23.0,17.1,78,29.88,10.0,Calm,Calm,-,N/A,,Clear,0,2012-12-31 21:54:00
5:54 PM,19.9,16.0,85,29.87,9.0,Calm,Calm,-,N/A,,Clear,0,2012-12-31 22:54:00
8:54 PM,23.0,19.0,85,29.83,8.0,South,3.5,-,N/A,,Overcast,170,2013-01-01 01:54:00
9:54 PM,24.1,19.0,81,29.81,7.0,Calm,Calm,-,N/A,,Overcast,0,2013-01-01 02:54:00
10:54 PM,32.0,19.9,61,29.80,10.0,SW,5.8,-,N/A,,Overcast,230,2013-01-01 03:54:00
11:44 PM,33.8,21.2,60,29.75,10.0,SW,5.8,-,N/A,,Overcast,220,2013-01-01 04:44:00
11:54 PM,33.1,21.0,61,29.77,10.0,WSW,8.1,-,N/A,,Overcast,240,2013-01-01 04:54:00